Year,Month,Day,Hour,Minute,Value (Times are PST for temperature in C)
2013,07,13,00,00,10.80
2013,07,13,00,01,10.80
2013,07,13,00,02,10.80
2013,07,13,00,03,10.80
2013,07,13,00,04,10.80
2013,07,13,00,05,10.80
2013,07,13,00,06,10.70
2013,07,13,00,07,10.70
2013,07,13,00,08,10.70
2013,07,13,00,09,10.70
2013,07,13,00,10,10.70
2013,07,13,00,11,10.70
2013,07,13,00,12,10.60
2013,07,13,00,13,10.60
2013,07,13,00,14,10.60
2013,07,13,00,15,10.60
2013,07,13,00,16,10.60
2013,07,13,00,17,10.60
2013,07,13,00,18,10.60
2013,07,13,00,19,10.50
2013,07,13,00,20,10.50
2013,07,13,00,21,10.50
2013,07,13,00,22,10.50
2013,07,13,00,23,10.40
2013,07,13,00,24,10.40
2013,07,13,00,25,10.40
2013,07,13,00,26,10.40
2013,07,13,00,27,10.40
2013,07,13,00,28,10.30
2013,07,13,00,29,10.30
2013,07,13,00,30,10.30
2013,07,13,00,31,10.30
2013,07,13,00,32,10.30
2013,07,13,00,33,10.30
2013,07,13,00,34,10.30
2013,07,13,00,35,10.20
2013,07,13,00,36,10.20
2013,07,13,00,37,10.20
2013,07,13,00,38,10.20
2013,07,13,00,39,10.20
2013,07,13,00,40,10.20
2013,07,13,00,41,10.20
2013,07,13,00,42,10.20
2013,07,13,00,43,10.20
2013,07,13,00,44,10.20
2013,07,13,00,45,10.20
2013,07,13,00,46,10.20
2013,07,13,00,47,10.20
2013,07,13,00,48,10.20
2013,07,13,00,49,10.10
2013,07,13,00,50,10.10
2013,07,13,00,51,10.10
2013,07,13,00,52,10.10
2013,07,13,00,53,10.10
2013,07,13,00,54,10.10
2013,07,13,00,55,10.10
2013,07,13,00,56,10.10
2013,07,13,00,57,10.10
2013,07,13,00,58,10.10
2013,07,13,00,59,10.10
2013,07,13,01,00,10.10
2013,07,13,01,01,10.10
2013,07,13,01,02,10.10
2013,07,13,01,03,10.10
2013,07,13,01,04,10.10
2013,07,13,01,05,10.10
2013,07,13,01,06,10.00
2013,07,13,01,07,10.00
2013,07,13,01,08,10.00
2013,07,13,01,09,10.00
2013,07,13,01,10,10.00
2013,07,13,01,11,10.00
2013,07,13,01,12,9.90
2013,07,13,01,13,9.90
2013,07,13,01,14,9.90
2013,07,13,01,15,9.90
2013,07,13,01,16,9.90
2013,07,13,01,17,9.90
2013,07,13,01,18,9.90
2013,07,13,01,19,9.90
2013,07,13,01,20,10.00
2013,07,13,01,21,10.00
2013,07,13,01,22,9.90
2013,07,13,01,23,10.00
2013,07,13,01,24,10.00
2013,07,13,01,25,10.00
2013,07,13,01,26,9.90
2013,07,13,01,27,9.90
2013,07,13,01,28,10.00
2013,07,13,01,29,9.90
2013,07,13,01,30,10.00
2013,07,13,01,31,10.00
2013,07,13,01,32,10.00
2013,07,13,01,33,10.00
2013,07,13,01,34,10.00
2013,07,13,01,35,10.10
2013,07,13,01,36,10.10
2013,07,13,01,37,10.10
2013,07,13,01,38,10.10
2013,07,13,01,39,10.10
2013,07,13,01,40,10.10
2013,07,13,01,41,10.10
2013,07,13,01,42,10.10
2013,07,13,01,43,10.10
2013,07,13,01,44,10.10
2013,07,13,01,45,10.10
2013,07,13,01,46,10.10
2013,07,13,01,47,10.10
2013,07,13,01,48,10.10
2013,07,13,01,49,10.10
2013,07,13,01,50,10.10
2013,07,13,01,51,10.00
2013,07,13,01,52,10.00
2013,07,13,01,53,10.00
2013,07,13,01,54,10.00
2013,07,13,01,55,10.00
2013,07,13,01,56,9.90
2013,07,13,01,57,9.90
2013,07,13,01,58,9.90
2013,07,13,01,59,9.90
2013,07,13,02,00,9.90
2013,07,13,02,01,9.90
2013,07,13,02,02,9.90
2013,07,13,02,03,9.90
2013,07,13,02,04,9.90
2013,07,13,02,05,9.80
2013,07,13,02,06,9.80
2013,07,13,02,07,9.80
2013,07,13,02,08,9.80
2013,07,13,02,09,9.80
2013,07,13,02,10,9.80
2013,07,13,02,11,9.80
2013,07,13,02,12,9.80
2013,07,13,02,13,9.80
2013,07,13,02,14,9.70
2013,07,13,02,15,9.70
2013,07,13,02,16,9.70
2013,07,13,02,17,9.70
2013,07,13,02,18,9.70
2013,07,13,02,19,9.70
2013,07,13,02,20,9.70
2013,07,13,02,21,9.60
2013,07,13,02,22,9.60
2013,07,13,02,23,9.60
2013,07,13,02,24,9.60
2013,07,13,02,25,9.60
2013,07,13,02,26,9.60
2013,07,13,02,27,9.60
2013,07,13,02,28,9.60
2013,07,13,02,29,9.60
2013,07,13,02,30,9.60
2013,07,13,02,31,9.60
2013,07,13,02,32,9.50
2013,07,13,02,33,9.50
2013,07,13,02,34,9.50
2013,07,13,02,35,9.50
2013,07,13,02,36,9.50
2013,07,13,02,37,9.50
2013,07,13,02,38,9.50
2013,07,13,02,39,9.50
2013,07,13,02,40,9.50
2013,07,13,02,41,9.40
2013,07,13,02,42,9.40
2013,07,13,02,43,9.40
2013,07,13,02,44,9.40
2013,07,13,02,45,9.40
2013,07,13,02,46,9.40
2013,07,13,02,47,9.40
2013,07,13,02,48,9.40
2013,07,13,02,49,9.40
2013,07,13,02,50,9.40
2013,07,13,02,51,9.40
2013,07,13,02,52,9.40
2013,07,13,02,53,9.40
2013,07,13,02,54,9.40
2013,07,13,02,55,9.40
2013,07,13,02,56,9.40
2013,07,13,02,57,9.40
2013,07,13,02,58,9.40
2013,07,13,02,59,9.30
2013,07,13,03,00,9.40
2013,07,13,03,01,9.30
2013,07,13,03,02,9.30
2013,07,13,03,03,9.30
2013,07,13,03,04,9.30
2013,07,13,03,05,9.30
2013,07,13,03,06,9.30
2013,07,13,03,07,9.30
2013,07,13,03,08,9.30
2013,07,13,03,09,9.30
2013,07,13,03,10,9.30
2013,07,13,03,11,9.30
2013,07,13,03,12,9.30
2013,07,13,03,13,9.30
2013,07,13,03,14,9.30
2013,07,13,03,15,9.20
2013,07,13,03,16,9.20
2013,07,13,03,17,9.20
2013,07,13,03,18,9.20
2013,07,13,03,19,9.20
2013,07,13,03,20,9.20
2013,07,13,03,21,9.20
2013,07,13,03,22,9.20
2013,07,13,03,23,9.20
2013,07,13,03,24,9.10
2013,07,13,03,25,9.10
2013,07,13,03,26,9.10
2013,07,13,03,27,9.10
2013,07,13,03,28,9.10
2013,07,13,03,29,9.10
2013,07,13,03,30,9.10
2013,07,13,03,31,9.00
2013,07,13,03,32,9.00
2013,07,13,03,33,9.00
2013,07,13,03,34,9.00
2013,07,13,03,35,8.90
2013,07,13,03,36,8.90
2013,07,13,03,37,8.90
2013,07,13,03,38,8.90
2013,07,13,03,39,8.90
2013,07,13,03,40,8.90
2013,07,13,03,41,8.90
2013,07,13,03,42,8.90
2013,07,13,03,43,8.90
2013,07,13,03,44,8.90
2013,07,13,03,45,8.90
2013,07,13,03,46,8.90
2013,07,13,03,47,8.80
2013,07,13,03,48,8.80
2013,07,13,03,49,8.80
2013,07,13,03,50,8.80
2013,07,13,03,51,8.80
2013,07,13,03,52,8.80
2013,07,13,03,53,8.80
2013,07,13,03,54,8.80
2013,07,13,03,55,8.80
2013,07,13,03,56,8.80
2013,07,13,03,57,8.80
2013,07,13,03,58,8.80
2013,07,13,03,59,8.70
2013,07,13,04,00,8.70
2013,07,13,04,01,8.70
2013,07,13,04,02,8.70
2013,07,13,04,03,8.70
2013,07,13,04,04,8.70
2013,07,13,04,05,8.70
2013,07,13,04,06,8.70
2013,07,13,04,07,8.70
2013,07,13,04,08,8.70
2013,07,13,04,09,8.70
2013,07,13,04,10,8.70
2013,07,13,04,11,8.70
2013,07,13,04,12,8.70
2013,07,13,04,13,8.70
2013,07,13,04,14,8.70
2013,07,13,04,15,8.70
2013,07,13,04,16,8.70
2013,07,13,04,17,8.70
2013,07,13,04,18,8.70
2013,07,13,04,19,8.70
2013,07,13,04,20,8.70
2013,07,13,04,21,8.70
2013,07,13,04,22,8.70
2013,07,13,04,23,8.70
2013,07,13,04,24,8.70
2013,07,13,04,25,8.70
2013,07,13,04,26,8.70
2013,07,13,04,27,8.70
2013,07,13,04,28,8.70
2013,07,13,04,29,8.70
2013,07,13,04,30,8.70
2013,07,13,04,31,8.70
2013,07,13,04,32,8.70
2013,07,13,04,33,8.60
2013,07,13,04,34,8.60
2013,07,13,04,35,8.60
2013,07,13,04,36,8.60
2013,07,13,04,37,8.60
2013,07,13,04,38,8.60
2013,07,13,04,39,8.60
2013,07,13,04,40,8.60
2013,07,13,04,41,8.60
2013,07,13,04,42,8.50
2013,07,13,04,43,8.50
2013,07,13,04,44,8.50
2013,07,13,04,45,8.50
2013,07,13,04,46,8.50
2013,07,13,04,47,8.40
2013,07,13,04,48,8.40
2013,07,13,04,49,8.40
2013,07,13,04,50,8.40
2013,07,13,04,51,8.40
2013,07,13,04,52,8.40
2013,07,13,04,53,8.40
2013,07,13,04,54,8.40
2013,07,13,04,55,8.40
2013,07,13,04,56,8.40
2013,07,13,04,57,8.40
2013,07,13,04,58,8.40
2013,07,13,04,59,8.40
2013,07,13,05,00,8.40
2013,07,13,05,01,8.40
2013,07,13,05,02,8.40
2013,07,13,05,03,8.40
2013,07,13,05,04,8.40
2013,07,13,05,05,8.40
2013,07,13,05,06,8.40
2013,07,13,05,07,8.30
2013,07,13,05,08,8.30
2013,07,13,05,09,8.30
2013,07,13,05,10,8.30
2013,07,13,05,11,8.30
2013,07,13,05,12,8.30
2013,07,13,05,13,8.30
2013,07,13,05,14,8.30
2013,07,13,05,15,8.30
2013,07,13,05,16,8.30
2013,07,13,05,17,8.30
2013,07,13,05,18,8.30
2013,07,13,05,19,8.30
2013,07,13,05,20,8.30
2013,07,13,05,21,8.30
2013,07,13,05,22,8.30
2013,07,13,05,23,8.30
2013,07,13,05,24,8.30
2013,07,13,05,25,8.30
2013,07,13,05,26,8.30
2013,07,13,05,27,8.30
2013,07,13,05,28,8.30
2013,07,13,05,29,8.30
2013,07,13,05,30,8.30
2013,07,13,05,31,8.30
2013,07,13,05,32,8.30
2013,07,13,05,33,8.30
2013,07,13,05,34,8.30
2013,07,13,05,35,8.30
2013,07,13,05,36,8.30
2013,07,13,05,37,8.30
2013,07,13,05,38,8.30
2013,07,13,05,39,8.30
2013,07,13,05,40,8.30
2013,07,13,05,41,8.40
2013,07,13,05,42,8.40
2013,07,13,05,43,8.40
2013,07,13,05,44,8.40
2013,07,13,05,45,8.40
2013,07,13,05,46,8.40
2013,07,13,05,47,8.40
2013,07,13,05,48,8.40
2013,07,13,05,49,8.40
2013,07,13,05,50,8.40
2013,07,13,05,51,8.40
2013,07,13,05,52,8.40
2013,07,13,05,53,8.40
2013,07,13,05,54,8.40
2013,07,13,05,55,8.40
2013,07,13,05,56,8.40
2013,07,13,05,57,8.40
2013,07,13,05,58,8.40
2013,07,13,05,59,8.40
2013,07,13,06,00,8.40
2013,07,13,06,01,8.40
2013,07,13,06,02,8.40
2013,07,13,06,03,8.40
2013,07,13,06,04,8.40
2013,07,13,06,05,8.40
2013,07,13,06,06,8.40
2013,07,13,06,07,8.40
2013,07,13,06,08,8.40
2013,07,13,06,09,8.40
2013,07,13,06,10,8.40
2013,07,13,06,11,8.40
2013,07,13,06,12,8.40
2013,07,13,06,13,8.40
2013,07,13,06,14,8.40
2013,07,13,06,15,8.40
2013,07,13,06,16,8.40
2013,07,13,06,17,8.40
2013,07,13,06,18,8.40
2013,07,13,06,19,8.40
2013,07,13,06,20,8.40
2013,07,13,06,21,8.40
2013,07,13,06,22,8.40
2013,07,13,06,23,8.40
2013,07,13,06,24,8.40
2013,07,13,06,25,8.40
2013,07,13,06,26,8.40
2013,07,13,06,27,8.40
2013,07,13,06,28,8.40
2013,07,13,06,29,8.40
2013,07,13,06,30,8.40
2013,07,13,06,31,8.40
2013,07,13,06,32,8.40
2013,07,13,06,33,8.40
2013,07,13,06,34,8.40
2013,07,13,06,35,8.50
2013,07,13,06,36,8.50
2013,07,13,06,37,8.50
2013,07,13,06,38,8.50
2013,07,13,06,39,8.50
2013,07,13,06,40,8.50
2013,07,13,06,41,8.50
2013,07,13,06,42,8.50
2013,07,13,06,43,8.60
2013,07,13,06,44,8.60
2013,07,13,06,45,8.60
2013,07,13,06,46,8.60
2013,07,13,06,47,8.60
2013,07,13,06,48,8.60
2013,07,13,06,49,8.60
2013,07,13,06,50,8.60
2013,07,13,06,51,8.60
2013,07,13,06,52,8.60
2013,07,13,06,53,8.60
2013,07,13,06,54,8.70
2013,07,13,06,55,8.70
2013,07,13,06,56,8.70
2013,07,13,06,57,8.70
2013,07,13,06,58,8.70
2013,07,13,06,59,8.70
2013,07,13,07,00,8.70
2013,07,13,07,01,8.80
2013,07,13,07,02,8.80
2013,07,13,07,03,8.80
2013,07,13,07,04,8.80
2013,07,13,07,05,8.80
2013,07,13,07,06,8.90
2013,07,13,07,07,8.90
2013,07,13,07,08,8.90
2013,07,13,07,09,9.00
2013,07,13,07,10,9.00
2013,07,13,07,11,9.00
2013,07,13,07,12,9.10
2013,07,13,07,13,9.10
2013,07,13,07,14,9.10
2013,07,13,07,15,9.20
2013,07,13,07,16,9.20
2013,07,13,07,17,9.30
2013,07,13,07,18,9.30
2013,07,13,07,19,9.40
2013,07,13,07,20,9.50
2013,07,13,07,21,9.50
2013,07,13,07,22,9.60
2013,07,13,07,23,9.60
2013,07,13,07,24,9.60
2013,07,13,07,25,9.70
2013,07,13,07,26,9.80
2013,07,13,07,27,9.80
2013,07,13,07,28,9.80
2013,07,13,07,29,9.90
2013,07,13,07,30,9.90
2013,07,13,07,31,10.00
2013,07,13,07,32,10.10
2013,07,13,07,33,10.10
2013,07,13,07,34,10.10
2013,07,13,07,35,10.20
2013,07,13,07,36,10.20
2013,07,13,07,37,10.30
2013,07,13,07,38,10.30
2013,07,13,07,39,10.40
2013,07,13,07,40,10.50
2013,07,13,07,41,10.50
2013,07,13,07,42,10.60
2013,07,13,07,43,10.60
2013,07,13,07,44,10.70
2013,07,13,07,45,10.80
2013,07,13,07,46,10.80
2013,07,13,07,47,10.90
2013,07,13,07,48,11.00
2013,07,13,07,49,11.00
2013,07,13,07,50,11.20
2013,07,13,07,51,11.30
2013,07,13,07,52,11.40
2013,07,13,07,53,11.50
2013,07,13,07,54,11.60
2013,07,13,07,55,11.80
2013,07,13,07,56,11.90
2013,07,13,07,57,12.10
2013,07,13,07,58,12.30
2013,07,13,07,59,12.50
2013,07,13,08,00,12.70
2013,07,13,08,01,12.90
2013,07,13,08,02,13.00
2013,07,13,08,03,13.20
2013,07,13,08,04,13.40
2013,07,13,08,05,13.50
2013,07,13,08,06,13.70
2013,07,13,08,07,13.90
2013,07,13,08,08,14.00
2013,07,13,08,09,14.10
2013,07,13,08,10,14.20
2013,07,13,08,11,14.30
2013,07,13,08,12,14.50
2013,07,13,08,13,14.70
2013,07,13,08,14,14.80
2013,07,13,08,15,14.90
2013,07,13,08,16,15.00
2013,07,13,08,17,15.00
2013,07,13,08,18,15.00
2013,07,13,08,19,15.00
2013,07,13,08,20,15.10
2013,07,13,08,21,15.20
2013,07,13,08,22,15.30
2013,07,13,08,23,15.30
2013,07,13,08,24,15.40
2013,07,13,08,25,15.40
2013,07,13,08,26,15.50
2013,07,13,08,27,15.70
2013,07,13,08,28,15.80
2013,07,13,08,29,15.90
2013,07,13,08,30,16.00
2013,07,13,08,31,16.10
2013,07,13,08,32,16.20
2013,07,13,08,33,16.30
2013,07,13,08,34,16.40
2013,07,13,08,35,16.40
2013,07,13,08,36,16.50
2013,07,13,08,37,16.60
2013,07,13,08,38,16.70
2013,07,13,08,39,16.80
2013,07,13,08,40,16.90
2013,07,13,08,41,17.00
2013,07,13,08,42,17.10
2013,07,13,08,43,17.10
2013,07,13,08,44,17.20
2013,07,13,08,45,17.30
2013,07,13,08,46,17.30
2013,07,13,08,47,17.30
2013,07,13,08,48,17.30
2013,07,13,08,49,17.30
2013,07,13,08,50,17.40
2013,07,13,08,51,17.40
2013,07,13,08,52,17.50
2013,07,13,08,53,17.50
2013,07,13,08,54,17.60
2013,07,13,08,55,17.60
2013,07,13,08,56,17.60
2013,07,13,08,57,17.60
2013,07,13,08,58,17.70
2013,07,13,08,59,17.60
2013,07,13,09,00,17.70
2013,07,13,09,01,17.70
2013,07,13,09,02,17.70
2013,07,13,09,03,17.80
2013,07,13,09,04,17.80
2013,07,13,09,05,17.90
2013,07,13,09,06,17.90
2013,07,13,09,07,17.90
2013,07,13,09,08,18.00
2013,07,13,09,09,18.00
2013,07,13,09,10,18.00
2013,07,13,09,11,18.00
2013,07,13,09,12,18.00
2013,07,13,09,13,17.90
2013,07,13,09,14,17.90
2013,07,13,09,15,18.00
2013,07,13,09,16,18.00
2013,07,13,09,17,18.00
2013,07,13,09,18,18.10
2013,07,13,09,19,18.10
2013,07,13,09,20,18.10
2013,07,13,09,21,18.10
2013,07,13,09,22,18.10
2013,07,13,09,23,18.10
2013,07,13,09,24,18.10
2013,07,13,09,25,18.20
2013,07,13,09,26,18.20
2013,07,13,09,27,18.20
2013,07,13,09,28,18.30
2013,07,13,09,29,18.30
2013,07,13,09,30,18.30
2013,07,13,09,31,18.30
2013,07,13,09,32,18.40
2013,07,13,09,33,18.30
2013,07,13,09,34,18.30
2013,07,13,09,35,18.30
2013,07,13,09,36,18.30
2013,07,13,09,37,18.30
2013,07,13,09,38,18.30
2013,07,13,09,39,18.20
2013,07,13,09,40,18.20
2013,07,13,09,41,18.10
2013,07,13,09,42,18.10
2013,07,13,09,43,18.10
2013,07,13,09,44,18.10
2013,07,13,09,45,18.10
2013,07,13,09,46,18.00
2013,07,13,09,47,18.00
2013,07,13,09,48,18.00
2013,07,13,09,49,18.00
2013,07,13,09,50,17.90
2013,07,13,09,51,17.90
2013,07,13,09,52,17.80
2013,07,13,09,53,17.80
2013,07,13,09,54,17.80
2013,07,13,09,55,17.80
2013,07,13,09,56,17.80
2013,07,13,09,57,17.90
2013,07,13,09,58,17.90
2013,07,13,09,59,17.90
2013,07,13,10,00,17.90
2013,07,13,10,01,18.00
2013,07,13,10,02,18.00
2013,07,13,10,03,18.00
2013,07,13,10,04,18.10
2013,07,13,10,05,18.10
2013,07,13,10,06,18.10
2013,07,13,10,07,18.10
2013,07,13,10,08,18.20
2013,07,13,10,09,18.20
2013,07,13,10,10,18.20
2013,07,13,10,11,18.30
2013,07,13,10,12,18.40
2013,07,13,10,13,18.50
2013,07,13,10,14,18.60
2013,07,13,10,15,18.60
2013,07,13,10,16,18.70
2013,07,13,10,17,18.70
2013,07,13,10,18,18.80
2013,07,13,10,19,18.90
2013,07,13,10,20,18.90
2013,07,13,10,21,19.00
2013,07,13,10,22,19.10
2013,07,13,10,23,19.10
2013,07,13,10,24,19.10
2013,07,13,10,25,19.10
2013,07,13,10,26,19.00
2013,07,13,10,27,19.00
2013,07,13,10,28,18.90
2013,07,13,10,29,18.80
2013,07,13,10,30,18.80
2013,07,13,10,31,18.70
2013,07,13,10,32,18.70
2013,07,13,10,33,18.70
2013,07,13,10,34,18.70
2013,07,13,10,35,18.80
2013,07,13,10,36,18.80
2013,07,13,10,37,18.80
2013,07,13,10,38,18.90
2013,07,13,10,39,18.90
2013,07,13,10,40,18.90
2013,07,13,10,41,18.90
2013,07,13,10,42,18.90
2013,07,13,10,43,18.90
2013,07,13,10,44,18.90
2013,07,13,10,45,18.90
2013,07,13,10,46,18.90
2013,07,13,10,47,19.00
2013,07,13,10,48,19.00
2013,07,13,10,49,19.00
2013,07,13,10,50,19.10
2013,07,13,10,51,19.00
2013,07,13,10,52,19.00
2013,07,13,10,53,19.00
2013,07,13,10,54,19.00
2013,07,13,10,55,19.00
2013,07,13,10,56,18.90
2013,07,13,10,57,18.90
2013,07,13,10,58,18.90
2013,07,13,10,59,18.90
2013,07,13,11,00,18.90
2013,07,13,11,01,19.00
2013,07,13,11,02,19.00
2013,07,13,11,03,19.00
2013,07,13,11,04,19.00
2013,07,13,11,05,19.00
2013,07,13,11,06,19.00
2013,07,13,11,07,19.00
2013,07,13,11,08,18.90
2013,07,13,11,09,18.90
2013,07,13,11,10,19.00
2013,07,13,11,11,19.00
2013,07,13,11,12,19.00
2013,07,13,11,13,19.00
2013,07,13,11,14,19.00
2013,07,13,11,15,19.10
2013,07,13,11,16,19.10
2013,07,13,11,17,19.10
2013,07,13,11,18,19.20
2013,07,13,11,19,19.20
2013,07,13,11,20,19.20
2013,07,13,11,21,19.30
2013,07,13,11,22,19.30
2013,07,13,11,23,19.30
2013,07,13,11,24,19.30
2013,07,13,11,25,19.40
2013,07,13,11,26,19.40
2013,07,13,11,27,19.50
2013,07,13,11,28,19.50
2013,07,13,11,29,19.60
2013,07,13,11,30,19.60
2013,07,13,11,31,19.60
2013,07,13,11,32,19.50
2013,07,13,11,33,19.50
2013,07,13,11,34,19.50
2013,07,13,11,35,19.50
2013,07,13,11,36,19.50
2013,07,13,11,37,19.50
2013,07,13,11,38,19.50
2013,07,13,11,39,19.50
2013,07,13,11,40,19.50
2013,07,13,11,41,19.50
2013,07,13,11,42,19.50
2013,07,13,11,43,19.50
2013,07,13,11,44,19.60
2013,07,13,11,45,19.60
2013,07,13,11,46,19.60
2013,07,13,11,47,19.60
2013,07,13,11,48,19.50
2013,07,13,11,49,19.50
2013,07,13,11,50,19.50
2013,07,13,11,51,19.50
2013,07,13,11,52,19.50
2013,07,13,11,53,19.40
2013,07,13,11,54,19.50
2013,07,13,11,55,19.50
2013,07,13,11,56,19.50
2013,07,13,11,57,19.60
2013,07,13,11,58,19.60
2013,07,13,11,59,19.60
2013,07,13,12,00,19.70
2013,07,13,12,01,19.80
2013,07,13,12,02,19.80
2013,07,13,12,03,19.90
2013,07,13,12,04,19.90
2013,07,13,12,05,19.90
2013,07,13,12,06,19.90
2013,07,13,12,07,20.00
2013,07,13,12,08,20.10
2013,07,13,12,09,20.20
2013,07,13,12,10,20.30
2013,07,13,12,11,20.40
2013,07,13,12,12,20.50
2013,07,13,12,13,20.60
2013,07,13,12,14,20.60
2013,07,13,12,15,20.60
2013,07,13,12,16,20.70
2013,07,13,12,17,20.70
2013,07,13,12,18,20.80
2013,07,13,12,19,20.80
2013,07,13,12,20,20.80
2013,07,13,12,21,20.80
2013,07,13,12,22,20.70
2013,07,13,12,23,20.70
2013,07,13,12,24,20.70
2013,07,13,12,25,20.70
2013,07,13,12,26,20.70
2013,07,13,12,27,20.70
2013,07,13,12,28,20.70
2013,07,13,12,29,20.70
2013,07,13,12,30,20.80
2013,07,13,12,31,20.80
2013,07,13,12,32,20.90
2013,07,13,12,33,21.00
2013,07,13,12,34,21.00
2013,07,13,12,35,21.10
2013,07,13,12,36,21.20
2013,07,13,12,37,21.30
2013,07,13,12,38,21.30
2013,07,13,12,39,21.40
2013,07,13,12,40,21.40
2013,07,13,12,41,21.40
2013,07,13,12,42,21.40
2013,07,13,12,43,21.40
2013,07,13,12,44,21.40
2013,07,13,12,45,21.40
2013,07,13,12,46,21.40
2013,07,13,12,47,21.40
2013,07,13,12,48,21.40
2013,07,13,12,49,21.30
2013,07,13,12,50,21.40
2013,07,13,12,51,21.40
2013,07,13,12,52,21.40
2013,07,13,12,53,21.40
2013,07,13,12,54,21.50
2013,07,13,12,55,21.60
2013,07,13,12,56,21.70
2013,07,13,12,57,21.80
2013,07,13,12,58,21.80
2013,07,13,12,59,21.90
2013,07,13,13,00,22.00
2013,07,13,13,01,22.10
2013,07,13,13,02,22.10
2013,07,13,13,03,22.20
2013,07,13,13,04,22.20
2013,07,13,13,05,22.20
2013,07,13,13,06,22.20
2013,07,13,13,07,22.20
2013,07,13,13,08,22.30
2013,07,13,13,09,22.30
2013,07,13,13,10,22.30
2013,07,13,13,11,22.30
2013,07,13,13,12,22.30
2013,07,13,13,13,22.30
2013,07,13,13,14,22.30
2013,07,13,13,15,22.30
2013,07,13,13,16,22.20
2013,07,13,13,17,22.20
2013,07,13,13,18,22.20
2013,07,13,13,19,22.20
2013,07,13,13,20,22.20
2013,07,13,13,21,22.20
2013,07,13,13,22,22.20
2013,07,13,13,23,22.20
2013,07,13,13,24,22.30
2013,07,13,13,25,22.40
2013,07,13,13,26,22.40
2013,07,13,13,27,22.50
2013,07,13,13,28,22.50
2013,07,13,13,29,22.40
2013,07,13,13,30,22.50
2013,07,13,13,31,22.50
2013,07,13,13,32,22.40
2013,07,13,13,33,22.30
2013,07,13,13,34,22.30
2013,07,13,13,35,22.20
2013,07,13,13,36,22.20
2013,07,13,13,37,22.20
2013,07,13,13,38,22.20
2013,07,13,13,39,22.20
2013,07,13,13,40,22.20
2013,07,13,13,41,22.20
2013,07,13,13,42,22.20
2013,07,13,13,43,22.20
2013,07,13,13,44,22.20
2013,07,13,13,45,22.20
2013,07,13,13,46,22.30
2013,07,13,13,47,22.30
2013,07,13,13,48,22.40
2013,07,13,13,49,22.40
2013,07,13,13,50,22.40
2013,07,13,13,51,22.40
2013,07,13,13,52,22.30
2013,07,13,13,53,22.20
2013,07,13,13,54,22.00
2013,07,13,13,55,21.90
2013,07,13,13,56,21.90
2013,07,13,13,57,21.90
2013,07,13,13,58,22.00
2013,07,13,13,59,22.10
2013,07,13,14,00,22.20
2013,07,13,14,01,22.40
2013,07,13,14,02,22.50
2013,07,13,14,03,22.70
2013,07,13,14,04,22.80
2013,07,13,14,05,22.80
2013,07,13,14,06,22.90
2013,07,13,14,07,22.90
2013,07,13,14,08,23.00
2013,07,13,14,09,23.00
2013,07,13,14,10,23.10
2013,07,13,14,11,23.10
2013,07,13,14,12,23.20
2013,07,13,14,13,23.20
2013,07,13,14,14,23.20
2013,07,13,14,15,23.10
2013,07,13,14,16,23.00
2013,07,13,14,17,22.80
2013,07,13,14,18,22.60
2013,07,13,14,19,22.40
2013,07,13,14,20,22.30
2013,07,13,14,21,22.20
2013,07,13,14,22,22.30
2013,07,13,14,23,22.30
2013,07,13,14,24,22.40
2013,07,13,14,25,22.50
2013,07,13,14,26,22.60
2013,07,13,14,27,22.70
2013,07,13,14,28,22.70
2013,07,13,14,29,22.80
2013,07,13,14,30,22.90
2013,07,13,14,31,23.00
2013,07,13,14,32,23.00
2013,07,13,14,33,22.90
2013,07,13,14,34,22.70
2013,07,13,14,35,22.60
2013,07,13,14,36,22.40
2013,07,13,14,37,22.30
2013,07,13,14,38,22.20
2013,07,13,14,39,22.10
2013,07,13,14,40,22.10
2013,07,13,14,41,22.00
2013,07,13,14,42,22.00
2013,07,13,14,43,21.90
2013,07,13,14,44,21.90
2013,07,13,14,45,21.90
2013,07,13,14,46,22.00
2013,07,13,14,47,22.10
2013,07,13,14,48,22.20
2013,07,13,14,49,22.30
2013,07,13,14,50,22.50
2013,07,13,14,51,22.50
2013,07,13,14,52,22.60
2013,07,13,14,53,22.50
2013,07,13,14,54,22.50
2013,07,13,14,55,22.40
2013,07,13,14,56,22.40
2013,07,13,14,57,22.30
2013,07,13,14,58,22.30
2013,07,13,14,59,22.30
2013,07,13,15,00,22.20
2013,07,13,15,01,22.10
2013,07,13,15,02,22.00
2013,07,13,15,03,22.00
2013,07,13,15,04,21.90
2013,07,13,15,05,21.90
2013,07,13,15,06,21.90
2013,07,13,15,07,21.90
2013,07,13,15,08,22.00
2013,07,13,15,09,22.10
2013,07,13,15,10,22.10
2013,07,13,15,11,22.10
2013,07,13,15,12,22.10
2013,07,13,15,13,22.20
2013,07,13,15,14,22.30
2013,07,13,15,15,22.30
2013,07,13,15,16,22.40
2013,07,13,15,17,22.40
2013,07,13,15,18,22.50
2013,07,13,15,19,22.60
2013,07,13,15,20,22.60
2013,07,13,15,21,22.70
2013,07,13,15,22,22.80
2013,07,13,15,23,22.80
2013,07,13,15,24,22.80
2013,07,13,15,25,22.80
2013,07,13,15,26,22.90
2013,07,13,15,27,22.90
2013,07,13,15,28,22.90
2013,07,13,15,29,22.80
2013,07,13,15,30,22.70
2013,07,13,15,31,22.60
2013,07,13,15,32,22.50
2013,07,13,15,33,22.40
2013,07,13,15,34,22.40
2013,07,13,15,35,22.40
2013,07,13,15,36,22.30
2013,07,13,15,37,22.30
2013,07,13,15,38,22.30
2013,07,13,15,39,22.20
2013,07,13,15,40,22.10
2013,07,13,15,41,22.10
2013,07,13,15,42,22.00
2013,07,13,15,43,22.00
2013,07,13,15,44,22.00
2013,07,13,15,45,22.00
2013,07,13,15,46,21.90
2013,07,13,15,47,21.90
2013,07,13,15,48,21.90
2013,07,13,15,49,22.00
2013,07,13,15,50,22.00
2013,07,13,15,51,22.10
2013,07,13,15,52,22.10
2013,07,13,15,53,22.10
2013,07,13,15,54,22.10
2013,07,13,15,55,22.10
2013,07,13,15,56,22.10
2013,07,13,15,57,22.10
2013,07,13,15,58,22.00
2013,07,13,15,59,22.00
2013,07,13,16,00,22.00
2013,07,13,16,01,22.00
2013,07,13,16,02,22.00
2013,07,13,16,03,22.00
2013,07,13,16,04,22.00
2013,07,13,16,05,22.10
2013,07,13,16,06,22.10
2013,07,13,16,07,22.10
2013,07,13,16,08,22.10
2013,07,13,16,09,22.10
2013,07,13,16,10,22.10
2013,07,13,16,11,22.20
2013,07,13,16,12,22.20
2013,07,13,16,13,22.20
2013,07,13,16,14,22.20
2013,07,13,16,15,22.10
2013,07,13,16,16,22.10
2013,07,13,16,17,22.00
2013,07,13,16,18,21.90
2013,07,13,16,19,21.90
2013,07,13,16,20,21.80
2013,07,13,16,21,21.80
2013,07,13,16,22,21.80
2013,07,13,16,23,21.80
2013,07,13,16,24,21.80
2013,07,13,16,25,21.70
2013,07,13,16,26,21.70
2013,07,13,16,27,21.70
2013,07,13,16,28,21.70
2013,07,13,16,29,21.70
2013,07,13,16,30,21.70
2013,07,13,16,31,21.70
2013,07,13,16,32,21.70
2013,07,13,16,33,21.70
2013,07,13,16,34,21.70
2013,07,13,16,35,21.70
2013,07,13,16,36,21.70
2013,07,13,16,37,21.80
2013,07,13,16,38,21.80
2013,07,13,16,39,21.80
2013,07,13,16,40,21.80
2013,07,13,16,41,21.80
2013,07,13,16,42,21.80
2013,07,13,16,43,21.80
2013,07,13,16,44,21.80
2013,07,13,16,45,21.80
2013,07,13,16,46,21.80
2013,07,13,16,47,21.80
2013,07,13,16,48,21.80
2013,07,13,16,49,21.90
2013,07,13,16,50,21.90
2013,07,13,16,51,21.90
2013,07,13,16,52,21.90
2013,07,13,16,53,21.90
2013,07,13,16,54,21.90
2013,07,13,16,55,22.00
2013,07,13,16,56,22.10
2013,07,13,16,57,22.10
2013,07,13,16,58,22.10
2013,07,13,16,59,22.10
2013,07,13,17,00,22.10
2013,07,13,17,01,22.10
2013,07,13,17,02,22.10
2013,07,13,17,03,22.10
2013,07,13,17,04,22.00
2013,07,13,17,05,22.00
2013,07,13,17,06,22.00
2013,07,13,17,07,22.00
2013,07,13,17,08,22.00
2013,07,13,17,09,22.00
2013,07,13,17,10,22.00
2013,07,13,17,11,22.00
2013,07,13,17,12,22.00
2013,07,13,17,13,22.00
2013,07,13,17,14,22.00
2013,07,13,17,15,22.00
2013,07,13,17,16,22.00
2013,07,13,17,17,22.00
2013,07,13,17,18,22.00
2013,07,13,17,19,22.00
2013,07,13,17,20,22.00
2013,07,13,17,21,22.00
2013,07,13,17,22,22.00
2013,07,13,17,23,22.00
2013,07,13,17,24,22.00
2013,07,13,17,25,22.00
2013,07,13,17,26,22.00
2013,07,13,17,27,22.00
2013,07,13,17,28,22.00
2013,07,13,17,29,22.10
2013,07,13,17,30,22.10
2013,07,13,17,31,22.10
2013,07,13,17,32,22.10
2013,07,13,17,33,22.10
2013,07,13,17,34,22.10